Fitchburg, MA

4:19 AM EST on December 11, 2019 (GMT -0500)
Fitchburg Municipal

Weather History for KFIT - August, 2019

Change the Weather History Date:

Sunday, August 25, 2019

  Actual Average (KORH) Record (KORH)
Temperature  
Mean Temperature 60 °F -  
Max Temperature 72 °F 74 °F 92 °F (1947)
Min Temperature 50 °F 56 °F 40 °F (1940)
Degree Days  
Heating Degree Days 5    
Growing Degree Days 10 (Base 50)    
Moisture  
Dew Point 51 °F    
Average Humidity 72    
Maximum Humidity 93    
Minimum Humidity 45    
Precipitation  
Precipitation 0.00 in - - ()
Sea Level Pressure  
Sea Level Pressure 30.33 in    
Wind  
Wind Speed 5 mph ()    
Max Wind Speed 12 mph    
Max Gust Speed 18 mph    
Visibility 10.0 miles    
Events      
Averages and records for this station are not official NWS values.
T = Trace of Precipitation, MM = Missing Value Source: Averaged Metar Reports

Daily Weather History Graph

Daily Weather History Graph

Search for Another Location

Airport or City:

Astronomy

Aug. 25, 2019 Rise Set
Actual Time 6:04 AM EDT 7:33 PM EDT
Civil Twilight 5:34 AM EDT 8:02 PM EDT
Nautical Twilight 4:59 AM EDT 8:38 PM EDT
Astronomical Twilight 4:21 AM EDT 9:15 PM EDT
Moon 12:33 AM EDT (8/25) 3:55 PM EDT (8/25)
Length of Visible Light 14h 28m
Length of Day
13h 29m
Waning Crescent, 29% of the Moon is Illuminated
Aug 25
Waning Crescent
Aug 30
New
Sep 5
First Quarter
Sep 14
Full
Sep 21
Last Quarter

Hourly Weather History & Observations

Time (EDT) Temp. Dew Point Humidity Pressure Visibility Wind Dir Wind Speed Gust Speed Precip Events Conditions
12:52 AM 57.9 °F 54.0 °F 87% 30.32 in 10.0 mi WNW 3.5 mph - N/A   Clear
1:52 AM 55.9 °F 53.1 °F 90% 30.32 in 10.0 mi WNW 3.5 mph - N/A   Clear
2:49 AM 57.2 °F 53.6 °F 88% 30.31 in 10.0 mi NNW 3.5 mph - N/A   Mostly Cloudy
2:52 AM 57.0 °F 54.0 °F 89% 30.31 in 10.0 mi Calm Calm - N/A   Mostly Cloudy
3:06 AM 55.9 °F 54.0 °F 93% 30.31 in 10.0 mi NW 3.5 mph - N/A   Scattered Clouds
3:52 AM 57.9 °F 55.0 °F 90% 30.31 in 10.0 mi NW 4.6 mph - N/A   Overcast
4:34 AM 60.1 °F 55.9 °F 86% 30.31 in 10.0 mi NNW 4.6 mph - N/A   Overcast
4:52 AM 60.1 °F 55.9 °F 86% 30.32 in 10.0 mi North 4.6 mph - N/A   Overcast
5:21 AM 60.1 °F 55.0 °F 83% 30.32 in 10.0 mi North 4.6 mph - N/A   Overcast
5:42 AM 60.1 °F 55.0 °F 83% 30.32 in 10.0 mi North 5.8 mph - N/A   Overcast
5:52 AM 60.1 °F 55.0 °F 83% 30.32 in 10.0 mi North 6.9 mph - N/A   Overcast
6:52 AM 60.1 °F 55.0 °F 83% 30.34 in 10.0 mi North 5.8 mph - N/A   Mostly Cloudy
7:52 AM 63.0 °F 55.9 °F 78% 30.36 in 10.0 mi NNE 6.9 mph - N/A   Mostly Cloudy
8:52 AM 64.0 °F 53.1 °F 67% 30.36 in 10.0 mi ENE 9.2 mph - N/A   Scattered Clouds
9:52 AM 66.9 °F 51.1 °F 57% 30.37 in 10.0 mi Variable 5.8 mph 17.3 mph N/A   Scattered Clouds
10:52 AM 66.9 °F 48.9 °F 52% 30.37 in 10.0 mi NE 10.4 mph - N/A   Scattered Clouds
11:52 AM 69.1 °F 48.9 °F 49% 30.36 in 10.0 mi NNE 10.4 mph 17.3 mph N/A   Mostly Cloudy
12:52 PM 70.0 °F 50.0 °F 49% 30.35 in 10.0 mi ENE 9.2 mph - N/A   Mostly Cloudy
1:52 PM 69.1 °F 50.0 °F 51% 30.34 in 10.0 mi NE 8.1 mph 17.3 mph N/A   Mostly Cloudy
2:52 PM 70.0 °F 50.0 °F 49% 30.33 in 10.0 mi East 10.4 mph 18.4 mph N/A   Mostly Cloudy
3:52 PM 70.0 °F 48.0 °F 46% 30.32 in 10.0 mi ESE 11.5 mph - N/A   Clear
5:52 PM 66.0 °F 44.1 °F 45% 30.32 in 10.0 mi ENE 5.8 mph - N/A   Clear
6:52 PM 64.0 °F 46.0 °F 52% 30.32 in 10.0 mi Variable 3.5 mph - N/A   Clear
7:52 PM 61.0 °F 46.0 °F 58% 30.32 in 10.0 mi ENE 3.5 mph - N/A   Clear
8:52 PM 55.0 °F 46.0 °F 72% 30.34 in 10.0 mi North 3.5 mph - N/A   Clear
9:52 PM 51.1 °F 46.0 °F 83% 30.33 in 10.0 mi NW 3.5 mph - N/A   Clear
10:52 PM 50.0 °F 46.0 °F 86% 30.33 in 10.0 mi NW 3.5 mph - N/A   Clear
11:52 PM 50.0 °F 46.9 °F 89% 30.32 in 10.0 mi North 3.5 mph - N/A   Clear